Temp
26 26 25 24 24 24 24 23 23 22 22 21 21 21 21 20 20 20 19 19 19 18 17 17 16 16 16 17 17 17 16 16 16 16 16 16 17 17 18 17 17 17 17
26 26 25 24 24 23 23 22 22 22 22 21 21 21 20 20 20 20 19 19 18 18 17 17 16 16 16 16 16 16 15 15 15 14 15 16 16 16 16 17 17 17 17
25 25 24 24 23 23 22 22 22 21 21 21 21 20 20 20 19 19 19 19 18 17 18 17 17 16 16 16 16 15 15 15 15 14 14 15 15 15 16 15 15 16 16
25 24 23 23 23 22 22 22 21 21 21 20 20 20 20 20 19 19 19 18 18 18 17 17 17 17 16 16 16 15 15 15 15 14 14 13 13 14 14 14 14 15 15
24 23 23 23 22 22 22 21 21 21 20 20 20 19 19 19 19 19 18 18 18 17 17 16 16 16 16 16 16 15 15 15 14 14 13 12 13 13 12 12 13 13 14
23 23 23 22 22 22 21 21 21 20 20 20 20 19 19 19 18 18 18 17 17 17 17 17 16 16 16 15 15 15 15 15 14 13 12 11 12 12 12 12 12 12 10
22 22 22 22 22 21 21 20 20 20 19 19 19 18 18 18 17 17 17 17 17 17 17 16 16 16 15 15 15 15 15 14 14 13 12 12 12 12 12 12 12 12 12
21 21 21 21 20 21 20 20 20 19 19 19 18 18 18 18 17 17 17 16 17 17 17 17 16 16 15 15 15 14 14 15 14 14 13 13 12 12 12 12 11 11 11
20 20 20 20 20 20 20 20 19 19 19 18 18 18 18 17 17 17 17 16 16 16 17 17 16 16 16 14 14 14 14 14 14 14 13 13 13 12 12 12 12 10 10
19 19 19 20 21 20 20 19 19 19 18 18 18 18 17 17 17 17 17 17 17 17 17 16 15 15 15 14 14 14 13 14 14 14 14 14 14 14 14 13 13 11 10
19 18 19 21 21 20 19 19 19 18 18 18 18 17 17 17 17 17 17 17 17 16 16 15 15 15 14 14 14 14 14 14 14 13 14 14 15 15 15 14 14 13 12
21 20 20 20 20 20 20 19 18 18 18 17 17 17 17 17 17 17 16 17 16 16 15 15 14 14 14 14 13 14 13 13 13 13 13 13 14 15 15 14 14 14 14
18 18 19 20 20 20 20 19 18 18 17 17 17 17 17 17 17 17 16 16 16 16 15 15 15 15 15 15 15 14 14 13 13 12 13 14 14 14 13 13 13 14 14
19 20 19 19 19 18 17 17 18 17 17 17 17 17 17 17 17 16 16 16 16 16 16 16 15 15 14 14 15 14 14 13 13 12 12 12 12 13 13 12 11 11 11
19 17 17 17 16 17 17 17 18 18 19 19 19 18 18 17 18 17 17 17 17 16 16 16 16 16 15 15 15 15 14 14 13 12 12 12 11 11 10 10 10 10 10
18 17 16 16 17 17 17 17 18 18 18 19 19 19 18 18 17 17 17 17 17 16 15 15 15 15 14 14 14 14 14 13 13 12 11 10 9 9 8 7 7 7 7
17 16 16 16 18 17 17 17 17 17 18 19 19 18 18 18 18 18 17 17 16 16 15 15 14 14 14 14 13 12 12 13 12 10 9 8 7 6 6 5 5 4 4
18 16 17 17 17 18 18 17 18 18 17 18 18 19 18 18 18 18 17 16 16 15 15 15 15 15 15 13 13 12 12 11 9 8 7 6 6 5 5 4 4 3 2
16 16 17 17 17 18 18 18 18 18 18 18 19 19 19 19 19 19 18 17 17 17 16 16 16 15 14 14 12 11 10 9 7 7 6 5 5 4 4 4 3 3 2
17 17 17 17 17 18 18 17 17 18 17 18 19 20 20 19 20 19 18 18 17 17 16 16 15 15 14 13 12 11 9 7 6 5 5 4 3 3 3 3 3 3 2
16 16 17 17 17 17 18 17 18 18 18 19 20 20 19 19 19 19 18 17 17 16 15 15 15 14 13 12 11 9 8 6 5 5 4 3 3 3 4 4 4 4 4
16 16 17 18 18 18 18 19 19 19 19 19 19 19 19 19 20 19 17 17 16 15 14 14 14 13 12 11 9 8 7 5 4 4 4 3 3 4 4 4 4 5 5
16 17 18 18 18 18 18 19 19 19 20 19 20 19 19 19 19 17 17 16 15 14 14 13 13 12 11 9 8 8 7 6 5 5 5 4 3 4 4 4 4 5 5
15 17 18 18 19 19 19 19 20 20 19 19 19 19 19 19 18 17 16 15 14 14 13 13 11 10 9 8 8 7 6 6 5 5 5 4 5 5 5 5 5 5 5
17 18 18 18 18 19 19 19 19 19 19 19 19 19 19 18 17 16 15 14 14 13 13 12 10 10 8 7 7 7 6 5 5 6 5 5 5 5 6 6 6 6 6
15 16 16 17 19 19 19 20 20 19 19 19 19 19 18 17 17 16 15 14 14 13 12 11 10 9 8 7 7 7 7 6 6 6 6 6 6 6 6 6 7 6 6
Height
756 762 767 772 777 780 783 786 789 791 793 795 796 797 797 798 799 799 800 801 802 802 802 802 802 802 799 799 798 797 796 795 794 794 793 790 787 786 785 784 782 781 781
752 759 765 770 775 779 781 785 788 791 794 795 796 797 799 800 801 800 801 802 803 803 804 803 801 802 801 801 799 799 799 798 797 795 793 791 791 788 787 785 784 783 782
749 756 762 768 772 777 780 784 787 791 794 797 798 800 802 803 804 804 803 802 803 804 805 805 804 802 803 801 800 799 799 800 798 797 795 793 791 790 789 786 786 784 785
744 752 758 764 769 774 779 783 787 791 794 797 799 800 802 804 805 806 806 806 806 805 805 805 804 803 805 804 802 800 799 799 799 798 797 796 794 792 791 789 786 786 785
741 749 755 762 769 774 780 784 788 791 793 795 797 799 800 802 803 805 807 807 808 808 807 806 805 804 805 804 803 802 801 800 800 799 798 797 796 794 792 790 789 788 786
738 746 754 761 767 773 779 782 785 788 791 793 795 798 800 801 802 802 804 806 806 807 807 807 806 804 804 803 803 802 801 800 800 799 798 796 795 794 792 791 789 788 788
740 746 753 759 764 768 775 780 783 787 790 793 795 798 800 801 803 803 804 804 805 806 806 806 807 807 806 805 804 802 801 800 799 797 796 796 794 793 792 790 789 788 786
739 747 752 756 761 767 774 777 781 785 788 792 794 796 797 800 803 805 805 805 805 804 803 803 803 803 803 803 803 803 802 800 798 796 794 792 791 791 791 789 786 785 784
736 742 749 755 761 768 773 775 778 784 786 790 793 795 797 798 801 805 806 805 805 805 803 803 802 800 799 801 802 801 799 798 796 794 792 790 788 787 787 786 783 782 780
736 743 750 757 763 768 772 775 778 782 787 791 794 797 800 798 800 804 806 805 804 802 801 800 800 800 799 800 800 798 795 792 791 789 786 785 784 783 782 781 779 778 778
738 737 752 759 766 772 777 780 781 782 786 788 792 797 799 800 801 802 803 804 803 802 801 800 799 798 798 799 798 795 792 790 788 786 783 780 778 776 775 775 773 772 771
729 737 741 752 755 765 773 782 783 784 786 787 790 793 796 797 797 799 801 802 802 800 800 799 797 797 795 795 794 792 789 787 784 781 778 775 773 770 769 767 766 764 763
735 743 744 750 753 758 763 769 782 784 784 785 789 790 794 793 795 797 799 800 800 799 798 797 795 794 792 790 789 786 783 780 778 776 772 769 767 765 764 762 760 757 755
729 735 743 749 753 758 758 768 776 785 782 783 786 789 791 792 793 795 796 797 797 795 795 794 792 790 789 787 783 780 777 775 773 771 769 766 764 762 760 757 754 752 749
728 737 744 748 753 757 760 765 774 781 780 782 783 785 787 789 793 794 793 793 794 794 792 790 787 786 783 779 776 774 772 770 768 767 766 763 760 757 755 753 751 748 745
722 734 741 746 754 757 760 767 773 779 782 783 784 785 786 787 791 792 791 792 792 791 789 786 783 781 777 774 772 770 768 767 766 764 762 758 755 753 751 750 749 746 742
726 735 744 748 750 756 761 766 770 778 780 782 783 784 786 787 788 789 790 789 788 787 784 781 778 775 772 770 768 767 765 764 763 760 757 755 752 751 749 747 745 742 739
727 736 742 746 748 754 759 766 769 773 777 778 780 782 783 785 786 786 787 786 784 781 779 776 773 771 768 766 765 764 763 761 759 756 754 752 750 748 746 744 741 738 734
728 735 740 744 749 753 759 764 768 770 774 775 778 780 781 783 782 781 781 780 778 775 774 772 770 768 766 764 763 762 760 758 755 753 751 749 748 746 744 741 738 734 729
730 734 740 745 749 754 759 763 766 769 772 773 775 777 779 781 779 778 777 776 775 773 772 770 768 765 763 761 760 759 757 754 752 750 748 747 744 743 741 738 734 730 725
730 735 740 745 749 753 757 761 765 767 769 771 773 776 778 778 776 775 774 774 773 772 770 768 765 763 760 758 757 755 753 751 749 747 745 743 741 740 739 736 732 727 723
726 730 739 743 748 752 756 760 764 766 767 770 773 775 776 775 774 773 773 773 773 770 768 766 763 761 759 757 755 753 750 747 746 744 742 740 739 738 736 733 729 725 720
725 729 737 743 748 752 757 761 763 763 767 770 772 773 774 773 772 773 773 773 771 769 768 765 762 759 758 755 752 749 747 745 743 742 740 739 737 735 733 730 726 722 719
726 733 738 744 748 752 756 758 760 763 766 769 771 772 772 771 771 773 772 771 769 768 766 763 760 758 755 752 749 746 744 742 741 739 738 737 736 734 731 727 724 720 717
732 736 740 744 749 753 757 758 763 765 767 768 769 770 770 770 771 772 772 770 768 767 765 762 759 756 752 749 746 744 742 741 739 738 737 736 733 731 728 725 721 718 714
737 741 744 746 750 753 756 758 764 765 767 768 769 769 769 769 770 772 771 769 768 766 764 760 757 753 749 746 742 740 739 739 738 737 735 733 731 729 726 722 718 714 710
Wind_Speed
28 28 26 23 20 19 18 19 18 16 14 12 10 8 8 11 11 12 11 9 9 10 9 8 9 8 12 12 12 11 13 9 3 3 9 11 10 11 10 11 11 9 8
30 31 28 22 24 22 21 20 18 16 15 13 10 9 9 9 8 8 9 7 9 9 7 6 10 10 11 11 11 12 13 13 8 6 8 13 13 14 12 9 8 8 8
35 32 29 28 26 24 23 21 19 17 15 13 10 9 8 8 7 6 6 7 9 8 6 7 7 7 8 10 11 12 13 13 13 9 10 10 8 13 12 12 11 9 13
36 34 33 31 28 27 24 23 21 18 17 14 11 9 8 6 4 4 6 7 7 8 8 6 7 7 8 8 10 11 11 12 13 13 9 9 8 11 10 13 16 14 13
36 35 34 31 29 26 25 22 21 19 17 15 13 11 9 6 4 6 9 8 6 6 5 4 4 5 5 6 7 8 10 11 12 12 11 9 10 13 13 14 14 14 11
34 32 34 32 30 27 26 24 23 21 18 15 12 11 9 7 6 8 9 8 7 4 3 3 3 4 3 1 1 3 6 8 10 8 5 9 11 11 10 12 11 10 6
29 31 33 33 31 31 29 28 25 21 17 16 14 11 8 7 7 7 6 8 7 4 7 8 9 10 9 7 5 4 5 8 11 11 10 10 10 8 13 15 15 14 14
29 31 34 36 35 34 31 28 24 20 18 17 14 11 10 9 7 6 7 8 5 2 2 5 11 15 16 16 12 10 10 10 13 12 14 15 14 14 17 17 17 16 16
29 32 34 34 34 34 30 27 23 21 19 17 14 13 11 11 9 5 4 6 4 2 2 5 8 9 12 16 13 10 13 17 15 15 15 16 17 17 15 14 14 10 6
23 26 30 32 34 31 28 26 23 18 16 14 13 11 10 11 10 6 3 1 1 1 4 7 8 4 4 9 11 12 18 22 20 21 20 19 19 19 17 17 16 15 13
23 23 30 32 29 24 20 20 17 17 16 15 13 12 12 9 10 8 7 5 5 6 8 9 7 5 4 7 11 17 22 25 27 25 23 23 23 22 22 21 22 22 21
32 39 38 33 29 24 19 13 14 16 17 16 13 13 15 13 13 13 11 8 7 7 10 10 8 8 10 14 18 23 27 27 26 24 24 26 26 26 24 25 24 23 26
31 30 37 34 31 28 22 20 16 17 16 15 15 14 13 13 15 15 13 10 9 12 11 10 10 11 14 18 21 23 20 18 18 20 21 23 22 21 21 23 25 25 27
40 41 36 32 30 24 23 20 19 19 16 14 14 14 10 6 9 14 13 11 11 10 10 12 14 17 19 22 23 19 17 15 16 19 21 20 18 20 25 26 26 26 25
33 27 27 25 26 26 22 25 23 20 14 13 11 11 11 9 9 10 9 9 8 10 14 18 21 25 29 29 24 20 19 16 13 9 14 20 22 21 21 18 19 20 20
31 25 25 25 24 26 26 22 18 14 14 10 9 10 10 7 9 10 8 9 11 14 19 22 26 29 27 23 20 20 17 13 10 19 24 23 19 16 14 15 15 17 20
26 25 24 25 30 28 25 23 21 18 16 14 11 9 7 6 8 8 10 13 16 19 21 25 26 24 21 19 20 15 11 14 18 23 21 16 14 13 14 18 15 16 19
25 28 29 30 31 30 28 28 26 23 19 15 12 11 10 11 14 14 17 19 22 21 23 24 21 21 20 18 12 11 14 18 23 18 16 13 12 13 15 16 17 17 17
26 31 31 29 30 30 29 26 25 20 17 12 10 11 10 13 14 17 19 17 18 18 16 15 16 16 15 13 12 12 16 20 17 15 12 10 14 11 15 17 19 19 18
25 30 32 30 30 29 26 23 19 16 13 12 11 10 10 11 13 15 11 12 12 10 13 13 14 13 15 14 11 13 18 18 13 11 10 12 11 11 14 18 20 19 20
25 27 27 29 29 28 24 21 20 14 14 12 11 9 7 10 13 8 8 7 6 7 12 12 13 16 17 12 11 15 17 15 10 9 9 9 10 12 14 18 19 19 20
25 30 29 29 27 25 21 18 19 17 13 11 8 4 5 6 4 7 3 3 5 9 9 12 15 14 11 10 14 16 17 12 9 8 8 7 8 9 13 16 18 20 18
29 30 29 24 23 24 23 20 18 14 10 7 3 4 4 4 6 4 2 4 8 7 10 13 12 9 11 13 16 15 14 10 9 8 8 7 9 10 12 14 16 16 16
26 29 24 25 24 24 23 19 14 11 8 4 2 3 4 6 6 5 2 5 5 8 12 11 10 13 15 16 15 15 12 9 7 6 7 9 10 12 14 16 16 17 17
20 21 25 24 25 21 19 14 13 9 4 3 1 6 5 7 7 3 4 4 6 9 11 10 13 17 17 15 15 13 11 6 6 5 7 9 11 13 16 17 18 19 19
23 19 14 14 16 17 17 13 9 9 7 7 3 3 6 9 5 3 3 4 6 9 10 12 16 19 18 16 15 11 8 4 3 5 9 12 13 15 16 18 20 22 23
Wind_Direction
202 198 187 181 174 176 169 165 166 164 164 156 144 129 132 133 133 122 114 111 96 98 89 81 83 71 72 62 53 51 46 38 16 7 9 14 17 17 19 32 45 42 23
191 181 176 174 171 170 172 173 173 169 166 162 158 149 146 148 144 136 131 131 128 107 84 81 97 87 75 60 55 56 49 40 35 17 18 21 24 23 26 26 32 34 30
177 176 170 169 173 176 174 173 169 165 161 158 151 145 148 150 151 153 153 150 125 95 91 92 94 86 78 69 60 54 49 41 38 32 17 22 18 20 24 33 23 21 30
176 175 173 175 178 175 171 169 168 167 164 161 161 162 165 175 196 209 178 149 126 115 117 106 107 98 90 56 57 57 51 43 33 28 14 5 359 358 -0 1 359 1 6
171 172 177 176 176 172 170 170 167 164 166 166 163 162 165 170 193 180 161 152 145 142 148 141 119 115 96 61 61 59 45 33 17 7 359 348 347 351 352 343 338 347 350
169 171 175 176 171 169 171 170 167 165 166 166 160 156 149 151 163 168 169 173 173 180 206 222 230 206 201 149 85 51 24 10 358 341 329 328 325 329 338 338 336 347 340
166 171 174 175 173 173 170 167 165 168 168 162 158 154 146 143 156 164 185 179 182 240 273 262 256 252 250 244 253 283 319 335 340 325 313 314 312 323 323 309 302 298 291
168 170 175 174 172 171 170 168 168 170 169 170 166 162 153 148 148 162 167 163 168 152 0 291 278 261 252 250 256 276 305 327 332 318 310 314 309 306 313 309 296 286 286
167 168 172 172 165 169 172 171 167 165 167 173 177 171 166 153 149 150 169 170 197 223 319 338 316 299 275 253 250 276 305 313 321 313 309 307 306 306 305 300 297 270 273
164 159 163 167 166 172 176 171 167 173 171 169 176 181 181 164 160 164 176 180 209 321 328 332 330 318 278 242 251 274 297 311 319 316 312 310 306 300 295 289 284 270 277
141 144 159 167 170 174 170 169 169 168 174 171 177 193 198 191 195 197 211 224 248 283 303 315 315 297 272 257 276 287 292 306 306 299 295 298 297 297 297 291 282 273 264
170 169 164 172 170 168 164 174 181 178 179 183 187 202 213 216 212 217 225 241 263 285 306 316 310 286 286 285 284 290 295 297 292 288 288 290 296 296 301 303 297 289 281
149 154 165 173 171 169 171 177 194 192 183 174 194 200 218 225 229 226 227 244 267 289 295 299 309 305 300 298 299 299 298 291 286 280 278 283 290 298 302 298 295 292 285
161 171 174 166 169 174 161 162 178 197 188 186 204 215 213 207 212 214 221 242 262 271 285 297 302 303 301 302 305 310 308 295 288 285 289 298 303 303 299 296 288 284 280
164 162 161 170 173 166 168 173 185 195 187 182 180 185 184 199 220 215 224 238 255 279 294 300 307 311 311 309 309 312 314 307 300 293 300 299 301 297 291 296 299 300 295
161 159 168 165 166 169 166 166 183 198 182 179 172 165 174 170 203 224 236 255 270 284 291 297 305 305 304 305 307 309 308 305 301 311 307 301 295 298 305 313 317 316 307
156 161 163 163 167 169 168 169 161 166 176 174 174 184 202 220 232 245 257 267 276 281 282 296 299 298 300 305 307 301 295 306 311 311 306 306 313 319 319 319 322 322 313
172 170 167 170 172 172 178 180 172 170 180 189 202 219 233 252 262 268 272 276 281 286 291 296 297 303 305 309 302 300 306 313 318 313 303 312 311 312 310 316 312 301 297
169 169 174 174 174 174 177 178 180 182 194 198 218 232 249 267 282 289 291 292 295 299 300 300 307 309 313 306 298 306 314 318 320 309 314 308 311 302 307 314 307 300 294
175 179 179 178 177 178 178 176 178 181 197 209 219 233 257 283 302 316 310 303 298 293 306 310 320 325 316 306 303 314 320 329 323 318 314 310 305 306 309 314 309 303 302
186 180 183 183 180 178 178 189 195 196 201 209 219 237 269 286 304 300 301 289 285 304 315 326 333 328 318 307 309 323 325 331 317 310 299 305 306 320 325 325 321 328 323
186 181 184 179 180 179 187 190 188 192 184 189 217 261 297 292 266 286 250 269 311 320 331 332 328 325 318 314 321 324 324 320 309 300 302 315 313 323 330 330 329 331 319
179 172 175 179 189 191 177 177 172 161 173 196 224 310 306 263 281 222 185 320 324 331 332 332 334 333 325 322 323 323 318 316 319 314 307 316 324 327 329 330 332 328 328
168 165 168 167 161 164 167 162 163 165 174 183 279 292 218 257 211 187 292 327 333 339 336 340 347 341 333 331 328 328 319 316 323 312 310 315 322 324 327 331 332 334 334
147 157 165 162 158 155 160 155 164 160 160 145 212 187 265 209 185 212 314 334 343 339 344 352 349 344 339 335 331 327 314 312 319 314 321 321 320 320 324 325 327 326 326
131 119 116 127 152 167 163 155 171 157 147 131 130 269 242 194 186 239 299 340 341 347 352 353 351 350 348 339 333 325 310 297 312 330 333 328 324 325 328 327 326 322 315